Voltar ao catálogo

TOPEX/POSEIDON

AtivoCiênciaLEO
NORAD 22076·PAYLOAD·🇺🇸 United States

Lançado Aug 10, 1992 de Guiana Space Centre

Loading…

Próximas Passagens (próximas 24 horas)

TLE

AtualizadoSource: Space-Track

Época: Sep 14, 2026, 15:38 UTC

1 22076U 92052A   26257.65165301 -.00000042  00000-0  80758-4 0  9993
2 22076  66.0415 306.2913 0008195 266.9492 271.8340 12.81096019594949

Acompanhe TOPEX/POSEIDON em tempo real com AllMySat

Download on the App Store